ALT15 MMSD-KSAN

Flight info

Callsign ALT15
Flight time N/A
Altitude 36000
Route ANEGO1A ANEGO UL312 SQN UT64 TIJ
Aircraft B738/M-SDE2E3FGHIRWXY/LB1

Departure

Time 2026-04-22 21:37
Airport Los Cabos International Airport (MMSD)

Arrival

Time N/A
Airport San Diego International Airport (KSAN)
Time Latitude Longitude Altitude Speed Heading
2026-04-22 21:36 23.16549 -109.72162 383 ft 0 kts 258°
2026-04-22 21:36 23.16550 -109.72156 383 ft 0 kts 258°
2026-04-22 21:36 23.16541 -109.72196 385 ft 13 kts 249°
2026-04-22 21:37 23.16444 -109.72218 388 ft 23 kts 175°
2026-04-22 21:37 23.16057 -109.72173 388 ft 104 kts 181°
2026-04-22 21:37 23.15043 -109.72031 528 ft 179 kts 171°
2026-04-22 21:37 23.13861 -109.71908 1793 ft 177 kts 176°
2026-04-22 21:38 23.12588 -109.71819 2646 ft 193 kts 175°
2026-04-22 21:38 23.11214 -109.71654 3490 ft 207 kts 174°
2026-04-22 21:38 23.09730 -109.71455 4300 ft 227 kts 174°
2026-04-22 21:38 23.08121 -109.71256 5231 ft 241 kts 175°
2026-04-22 21:39 23.06409 -109.71057 6155 ft 258 kts 176°
2026-04-22 21:39 23.04586 -109.70873 7097 ft 272 kts 181°
2026-04-22 21:39 23.02697 -109.71147 8036 ft 280 kts 202°
2026-04-22 21:39 23.01103 -109.72189 9295 ft 275 kts 223°
2026-04-22 21:40 22.99900 -109.73788 10350 ft 280 kts 240°
2026-04-22 21:40 22.99095 -109.75758 11130 ft 296 kts 253°
2026-04-22 21:40 22.98837 -109.78013 11834 ft 314 kts 274°
2026-04-22 21:40 22.99462 -109.80328 12527 ft 333 kts 297°
2026-04-22 21:41 23.00943 -109.82317 13201 ft 352 kts 317°
2026-04-22 21:41 23.02947 -109.83889 14043 ft 363 kts 325°
2026-04-22 21:41 23.05108 -109.85337 15037 ft 368 kts 326°
2026-04-22 21:41 23.07311 -109.86755 16020 ft 372 kts 326°
2026-04-22 21:42 23.09520 -109.88177 16970 ft 376 kts 326°
2026-04-22 21:42 23.11784 -109.89653 17916 ft 379 kts 326°
2026-04-22 21:42 23.14029 -109.91134 18759 ft 384 kts 326°
2026-04-22 21:42 23.16328 -109.92652 19564 ft 390 kts 326°
2026-04-22 21:43 23.18664 -109.94196 20370 ft 395 kts 326°
2026-04-22 21:43 23.21028 -109.95760 21144 ft 399 kts 326°
2026-04-22 21:43 23.23383 -109.97320 21866 ft 404 kts 326°
2026-04-22 21:43 23.25815 -109.98931 22620 ft 409 kts 326°
2026-04-22 21:44 23.28251 -110.00548 23389 ft 412 kts 326°
2026-04-22 21:44 23.30690 -110.02166 24188 ft 414 kts 326°
2026-04-22 21:44 23.33124 -110.03783 24977 ft 416 kts 326°
2026-04-22 21:44 23.35614 -110.05437 25754 ft 418 kts 326°
2026-04-22 21:45 23.38113 -110.07099 26457 ft 421 kts 326°
2026-04-22 21:45 23.40585 -110.08745 27181 ft 423 kts 326°
2026-04-22 21:45 23.43116 -110.10431 27857 ft 426 kts 326°
2026-04-22 21:45 23.45637 -110.12110 28541 ft 428 kts 326°
2026-04-22 21:46 23.48194 -110.13814 29196 ft 431 kts 326°
2026-04-22 21:46 23.50737 -110.15544 29750 ft 435 kts 324°
2026-04-22 21:46 23.53213 -110.17460 30331 ft 437 kts 320°
2026-04-22 21:46 23.55537 -110.19563 31139 ft 433 kts 316°
2026-04-22 21:47 23.57744 -110.21769 32037 ft 428 kts 315°
2026-04-22 21:47 23.59873 -110.24007 32724 ft 427 kts 314°
2026-04-22 21:47 23.61948 -110.26246 33475 ft 424 kts 313°
2026-04-22 21:47 23.64036 -110.28522 34338 ft 420 kts 313°
2026-04-22 21:48 23.66073 -110.30752 35145 ft 416 kts 313°
2026-04-22 21:48 23.68100 -110.32969 35828 ft 414 kts 313°
2026-04-22 21:48 23.70153 -110.35212 36011 ft 420 kts 313°
2026-04-22 21:48 23.72217 -110.37464 36003 ft 417 kts 313°
2026-04-22 21:49 23.76267 -110.41868 36003 ft 412 kts 313°
2026-04-22 21:49 23.80364 -110.46321 36003 ft 414 kts 313°
2026-04-22 21:50 23.84437 -110.50748 36000 ft 414 kts 313°
2026-04-22 21:50 23.88528 -110.55197 36004 ft 413 kts 313°
2026-04-22 21:51 23.92731 -110.59528 36001 ft 415 kts 316°
2026-04-22 21:52 23.99360 -110.65589 36002 ft 414 kts 317°
2026-04-22 21:52 24.03784 -110.69616 36007 ft 414 kts 317°
2026-04-22 21:53 24.08182 -110.73664 36006 ft 415 kts 317°
2026-04-22 21:53 24.12580 -110.77742 36011 ft 416 kts 317°
2026-04-22 21:54 24.16972 -110.81831 36009 ft 414 kts 316°
2026-04-22 21:54 24.21371 -110.85934 36009 ft 414 kts 317°
2026-04-22 21:55 24.25741 -110.90015 36012 ft 414 kts 316°
2026-04-22 21:55 24.30115 -110.94105 36002 ft 413 kts 316°
2026-04-22 21:56 24.34480 -110.98189 35997 ft 414 kts 316°
2026-04-22 21:56 24.38866 -111.02298 35996 ft 414 kts 316°
2026-04-22 21:57 24.43240 -111.06399 36001 ft 414 kts 316°
2026-04-22 21:57 24.47629 -111.10517 36003 ft 413 kts 316°
2026-04-22 21:58 24.51979 -111.14602 36006 ft 413 kts 316°
2026-04-22 21:58 24.56343 -111.18704 36003 ft 413 kts 316°
2026-04-22 21:59 24.60714 -111.22817 36005 ft 414 kts 316°
2026-04-22 21:59 24.65084 -111.26932 36000 ft 413 kts 316°
2026-04-22 22:00 24.69461 -111.31059 36001 ft 414 kts 316°
2026-04-22 22:00 24.73819 -111.35172 36000 ft 414 kts 316°
2026-04-22 22:01 24.78175 -111.39288 35996 ft 413 kts 316°
2026-04-22 22:01 24.82524 -111.43400 35997 ft 413 kts 316°
2026-04-22 22:02 24.86871 -111.47514 35999 ft 413 kts 316°
2026-04-22 22:02 24.91236 -111.51650 35985 ft 413 kts 316°
2026-04-22 22:03 24.95581 -111.55769 35991 ft 413 kts 316°
2026-04-22 22:03 24.99960 -111.59927 35990 ft 414 kts 316°
2026-04-22 22:04 25.04299 -111.64048 35996 ft 413 kts 316°
2026-04-22 22:04 25.08666 -111.68201 36000 ft 412 kts 315°
2026-04-22 22:05 25.12991 -111.72318 35999 ft 413 kts 315°
2026-04-22 22:05 25.17326 -111.76448 35996 ft 413 kts 315°
2026-04-22 22:06 25.21680 -111.80602 36002 ft 413 kts 315°
2026-04-22 22:06 25.26011 -111.84737 36001 ft 413 kts 315°
2026-04-22 22:07 25.30380 -111.88867 36001 ft 414 kts 317°
2026-04-22 22:07 25.35046 -111.92649 36001 ft 416 kts 321°
2026-04-22 22:08 25.39844 -111.96241 36001 ft 416 kts 321°
2026-04-22 22:08 25.44626 -111.99811 36004 ft 416 kts 321°
2026-04-22 22:09 25.49396 -112.03409 35995 ft 415 kts 321°
2026-04-22 22:09 25.54160 -112.07030 35999 ft 416 kts 321°
2026-04-22 22:10 25.58936 -112.10678 35999 ft 416 kts 321°
2026-04-22 22:10 25.63689 -112.14316 36001 ft 416 kts 321°
2026-04-22 22:11 25.68454 -112.17967 35999 ft 415 kts 321°
2026-04-22 22:11 25.73200 -112.21607 36000 ft 415 kts 320°
2026-04-22 22:12 25.77929 -112.25240 35999 ft 415 kts 320°
2026-04-22 22:12 25.82670 -112.28882 35998 ft 413 kts 321°
2026-04-22 22:13 25.87397 -112.32520 35997 ft 413 kts 320°
2026-04-22 22:13 25.92142 -112.36176 35995 ft 414 kts 320°
2026-04-22 22:14 25.96845 -112.39801 35993 ft 415 kts 320°
2026-04-22 22:14 26.01607 -112.43477 35993 ft 415 kts 320°
2026-04-22 22:15 26.06314 -112.47111 35990 ft 414 kts 320°
2026-04-22 22:15 26.11063 -112.50783 35983 ft 413 kts 320°
2026-04-22 22:16 26.15756 -112.54417 35986 ft 414 kts 320°
2026-04-22 22:16 26.20488 -112.58086 35992 ft 414 kts 320°
2026-04-22 22:17 26.25195 -112.61737 35988 ft 414 kts 320°
2026-04-22 22:17 26.29907 -112.65395 35990 ft 413 kts 320°
2026-04-22 22:18 26.34625 -112.69061 35997 ft 413 kts 320°
2026-04-22 22:18 26.39363 -112.72749 36004 ft 414 kts 320°
2026-04-22 22:19 26.44048 -112.76396 36009 ft 413 kts 320°
2026-04-22 22:19 26.48768 -112.80076 36015 ft 412 kts 320°
2026-04-22 22:20 26.53471 -112.83746 36009 ft 413 kts 320°
2026-04-22 22:20 26.58177 -112.87421 36007 ft 412 kts 320°
2026-04-22 22:21 26.62850 -112.91076 36007 ft 414 kts 320°
2026-04-22 22:21 26.67576 -112.94776 36010 ft 413 kts 320°
2026-04-22 22:22 26.72274 -112.98455 36003 ft 411 kts 320°
2026-04-22 22:22 26.76951 -113.02122 36005 ft 411 kts 319°
2026-04-22 22:23 26.81622 -113.05790 36001 ft 409 kts 319°
2026-04-22 22:23 26.86263 -113.09437 36003 ft 409 kts 319°
2026-04-22 22:24 26.90943 -113.13120 36000 ft 409 kts 319°
2026-04-22 22:24 26.95595 -113.16784 35999 ft 410 kts 319°
2026-04-22 22:25 27.00277 -113.20476 35995 ft 411 kts 319°
2026-04-22 22:25 27.04942 -113.24158 36001 ft 411 kts 319°
2026-04-22 22:26 27.09599 -113.27837 36005 ft 411 kts 319°
2026-04-22 22:26 27.14279 -113.31536 36009 ft 409 kts 319°
2026-04-22 22:27 27.18913 -113.35205 36012 ft 410 kts 319°
2026-04-22 22:27 27.23569 -113.38895 36016 ft 410 kts 319°
2026-04-22 22:28 27.28249 -113.42608 36024 ft 410 kts 319°
2026-04-22 22:28 27.32901 -113.46303 36025 ft 410 kts 319°
2026-04-22 22:29 27.37536 -113.49985 36023 ft 409 kts 319°
2026-04-22 22:29 27.42201 -113.53700 36020 ft 411 kts 318°
2026-04-22 22:30 27.46852 -113.57403 36016 ft 409 kts 318°
2026-04-22 22:30 27.51494 -113.61104 36019 ft 408 kts 318°
2026-04-22 22:31 27.56120 -113.64798 36019 ft 409 kts 318°
2026-04-22 22:31 27.60761 -113.68507 36015 ft 409 kts 318°
2026-04-22 22:32 27.65405 -113.72223 36015 ft 409 kts 318°
2026-04-22 22:32 27.70050 -113.75942 36018 ft 409 kts 318°
2026-04-22 22:33 27.74696 -113.79666 36023 ft 409 kts 318°
2026-04-22 22:33 27.79306 -113.83364 36024 ft 408 kts 317°
2026-04-22 22:34 27.83947 -113.87096 36027 ft 410 kts 317°
2026-04-22 22:34 27.88604 -113.90840 36021 ft 408 kts 317°
2026-04-22 22:35 27.93206 -113.94544 36026 ft 409 kts 317°
2026-04-22 22:35 27.97838 -113.98280 36030 ft 410 kts 317°
2026-04-22 22:36 28.02475 -114.02021 36030 ft 408 kts 317°
2026-04-22 22:36 28.07173 -114.05652 36029 ft 412 kts 319°
2026-04-22 22:37 28.11986 -114.09206 36032 ft 411 kts 320°
2026-04-22 22:37 28.16738 -114.12712 36025 ft 408 kts 319°
2026-04-22 22:38 28.21487 -114.16244 36031 ft 410 kts 320°
2026-04-22 22:38 28.26251 -114.19801 36027 ft 410 kts 319°
2026-04-22 22:39 28.31029 -114.23380 36029 ft 408 kts 319°
2026-04-22 22:39 28.35762 -114.26934 36034 ft 410 kts 319°
2026-04-22 22:40 28.40521 -114.30509 36028 ft 410 kts 319°
2026-04-22 22:40 28.45249 -114.34064 36024 ft 409 kts 319°
2026-04-22 22:41 28.49985 -114.37630 36028 ft 409 kts 319°
2026-04-22 22:41 28.54712 -114.41193 36033 ft 407 kts 319°
2026-04-22 22:42 28.59426 -114.44750 36031 ft 409 kts 319°
2026-04-22 22:42 28.64178 -114.48341 36029 ft 408 kts 319°
2026-04-22 22:43 28.68939 -114.51942 36028 ft 410 kts 319°
2026-04-22 22:43 28.73661 -114.55516 36032 ft 409 kts 319°
2026-04-22 22:44 28.78410 -114.59116 36034 ft 410 kts 319°
2026-04-22 22:44 28.83126 -114.62693 36034 ft 408 kts 319°
2026-04-22 22:45 28.87870 -114.66297 36039 ft 410 kts 318°
2026-04-22 22:45 28.92621 -114.69908 36027 ft 409 kts 318°
2026-04-22 22:46 28.97335 -114.73496 36037 ft 409 kts 318°
2026-04-22 22:46 29.02048 -114.77087 36031 ft 410 kts 318°
2026-04-22 22:47 29.06805 -114.80717 36038 ft 408 kts 318°
2026-04-22 22:47 29.11532 -114.84326 36034 ft 408 kts 318°
2026-04-22 22:48 29.16228 -114.87917 36037 ft 406 kts 318°
2026-04-22 22:48 29.20939 -114.91525 36042 ft 407 kts 318°
2026-04-22 22:49 29.25621 -114.95113 36047 ft 407 kts 318°
2026-04-22 22:49 29.30319 -114.98718 36040 ft 408 kts 318°
2026-04-22 22:50 29.35021 -115.02329 36036 ft 407 kts 318°
2026-04-22 22:50 29.39700 -115.05924 36037 ft 405 kts 318°
2026-04-22 22:51 29.44354 -115.09508 36047 ft 405 kts 317°
2026-04-22 22:51 29.49047 -115.13130 36040 ft 405 kts 317°
2026-04-22 22:52 29.53704 -115.16721 36044 ft 405 kts 317°
2026-04-22 22:52 29.58404 -115.20351 36047 ft 407 kts 317°
2026-04-22 22:53 29.63054 -115.23946 36042 ft 402 kts 317°
2026-04-22 22:53 29.67743 -115.27576 36052 ft 406 kts 317°
2026-04-22 22:54 29.72427 -115.31207 36048 ft 403 kts 317°
2026-04-22 22:54 29.77070 -115.34807 36051 ft 403 kts 317°
2026-04-22 22:55 29.81703 -115.38410 36057 ft 404 kts 317°
2026-04-22 22:55 29.88656 -115.43818 36058 ft 403 kts 317°
2026-04-22 22:56 29.93288 -115.47425 36062 ft 401 kts 317°
2026-04-22 22:56 29.97944 -115.51057 36059 ft 405 kts 317°
2026-04-22 22:57 30.02557 -115.54655 36064 ft 402 kts 317°
2026-04-22 22:57 30.07201 -115.58290 36053 ft 403 kts 317°
2026-04-22 22:58 30.11852 -115.61929 36062 ft 402 kts 317°
2026-04-22 22:58 30.16455 -115.65532 36055 ft 401 kts 316°
2026-04-22 22:59 30.21081 -115.69164 36054 ft 400 kts 316°
2026-04-22 22:59 30.25706 -115.72794 36052 ft 401 kts 316°
2026-04-22 23:00 30.30294 -115.76403 36056 ft 401 kts 316°
2026-04-22 23:00 30.34910 -115.80037 36051 ft 402 kts 316°
2026-04-22 23:01 30.39524 -115.83677 36056 ft 401 kts 316°
2026-04-22 23:01 30.44129 -115.87307 36056 ft 403 kts 316°
2026-04-22 23:02 30.48764 -115.90970 36061 ft 399 kts 316°
2026-04-22 23:02 30.53390 -115.94573 36060 ft 406 kts 318°
2026-04-22 23:03 30.58401 -115.97658 36064 ft 410 kts 324°
2026-04-22 23:03 30.63630 -116.00359 36056 ft 414 kts 326°
2026-04-22 23:04 30.68913 -116.03014 36054 ft 413 kts 326°
2026-04-22 23:04 30.74196 -116.05692 36057 ft 413 kts 326°
2026-04-22 23:05 30.79411 -116.08360 36061 ft 412 kts 326°
2026-04-22 23:05 30.84678 -116.11074 36062 ft 413 kts 326°
2026-04-22 23:06 30.89940 -116.13795 36064 ft 413 kts 325°
2026-04-22 23:06 30.95160 -116.16492 36069 ft 409 kts 326°
2026-04-22 23:07 31.00367 -116.19196 36070 ft 414 kts 326°
2026-04-22 23:07 31.05570 -116.21896 36068 ft 409 kts 325°
2026-04-22 23:08 31.10794 -116.24618 36070 ft 410 kts 326°
2026-04-22 23:08 31.16014 -116.27331 36065 ft 410 kts 326°
2026-04-22 23:09 31.21242 -116.30060 36073 ft 415 kts 326°
2026-04-22 23:09 31.26509 -116.32809 36077 ft 413 kts 326°
2026-04-22 23:10 31.31727 -116.35533 36079 ft 414 kts 326°
2026-04-22 23:10 31.36976 -116.38275 36092 ft 411 kts 326°
2026-04-22 23:11 31.42176 -116.41002 36092 ft 413 kts 326°
2026-04-22 23:11 31.47380 -116.43726 36099 ft 410 kts 325°
2026-04-22 23:12 31.52579 -116.46455 36094 ft 410 kts 325°
2026-04-22 23:12 31.57822 -116.49210 36097 ft 412 kts 326°
2026-04-22 23:13 31.63022 -116.51938 36094 ft 412 kts 326°
2026-04-22 23:13 31.68233 -116.54681 36084 ft 409 kts 325°
2026-04-22 23:14 31.73444 -116.57426 36086 ft 412 kts 325°
2026-04-22 23:14 31.78642 -116.60165 36094 ft 408 kts 325°
2026-04-22 23:15 31.83879 -116.62787 36096 ft 414 kts 328°
2026-04-22 23:15 31.89290 -116.65260 36097 ft 413 kts 328°
2026-04-22 23:16 31.94605 -116.67651 36104 ft 411 kts 328°
2026-04-22 23:16 31.99966 -116.70099 36096 ft 409 kts 328°
2026-04-22 23:17 32.05293 -116.72546 36106 ft 409 kts 327°
2026-04-22 23:17 32.10608 -116.75008 36096 ft 411 kts 327°
2026-04-22 23:18 32.15948 -116.77488 36098 ft 412 kts 327°
2026-04-22 23:18 32.21261 -116.79951 36104 ft 410 kts 327°
2026-04-22 23:19 32.26543 -116.82403 36104 ft 408 kts 327°
2026-04-22 23:19 32.31850 -116.84874 36108 ft 407 kts 327°
2026-04-22 23:20 32.37106 -116.87330 36119 ft 408 kts 327°
2026-04-22 23:20 32.42409 -116.89808 36120 ft 407 kts 327°
2026-04-22 23:21 32.47709 -116.92293 36112 ft 413 kts 327°
2026-04-22 23:21 32.53151 -116.94542 36105 ft 419 kts 335°
2026-04-22 23:22 32.56087 -116.95007 36111 ft 438 kts 346°
2026-04-22 23:22 32.59191 -116.94923 36111 ft 451 kts 352°
2026-04-22 23:22 32.65450 -116.94160 36111 ft 449 kts 355°
2026-04-22 23:23 32.68500 -116.93742 36099 ft 423 kts 349°
2026-04-22 23:23 32.71212 -116.94107 36108 ft 372 kts 328°
2026-04-22 23:23 32.73293 -116.95488 36099 ft 320 kts 304°
2026-04-22 23:23 32.74417 -116.97528 36111 ft 280 kts 281°
2026-04-22 23:24 32.74474 -116.99689 36123 ft 259 kts 260°
2026-04-22 23:24 32.73964 -117.01708 36113 ft 246 kts 255°
2026-04-22 23:24 32.73419 -117.03558 36106 ft 232 kts 256°
2026-04-22 23:24 32.72911 -117.05302 36109 ft 221 kts 256°
2026-04-22 23:25 32.72412 -117.07034 36116 ft 220 kts 256°
2026-04-22 23:25 32.72003 -117.08785 36115 ft 222 kts 263°
2026-04-22 23:25 32.71835 -117.10596 36119 ft 224 kts 269°
2026-04-22 23:25 32.71940 -117.12437 36119 ft 226 kts 276°
2026-04-22 23:26 32.72262 -117.14260 36115 ft 225 kts 279°
2026-04-22 23:26 32.72671 -117.16057 36120 ft 227 kts 281°
2026-04-22 23:26 32.73100 -117.17854 36119 ft 227 kts 281°
2026-04-22 23:26 32.73538 -117.19669 36112 ft 228 kts 281°
2026-04-22 23:27 32.73964 -117.21456 36141 ft 227 kts 280°
2026-04-22 23:27 32.74401 -117.23289 36214 ft 229 kts 281°
2026-04-22 23:27 32.74840 -117.25098 36280 ft 229 kts 280°
2026-04-22 23:27 32.75279 -117.26917 36213 ft 230 kts 281°
2026-04-22 23:28 32.75716 -117.28728 36139 ft 227 kts 281°
2026-04-22 23:28 32.76151 -117.30530 36022 ft 227 kts 280°
2026-04-22 23:28 32.76583 -117.32326 35893 ft 227 kts 281°
2026-04-22 23:28 32.77011 -117.34097 35772 ft 225 kts 281°
2026-04-22 23:29 32.77445 -117.35892 35628 ft 224 kts 280°
2026-04-22 23:29 32.77869 -117.37667 35498 ft 225 kts 281°
2026-04-22 23:29 32.78296 -117.39452 35433 ft 223 kts 280°
2026-04-22 23:29 32.78714 -117.41196 35443 ft 220 kts 281°
2026-04-22 23:30 32.79135 -117.42951 35504 ft 222 kts 281°
2026-04-22 23:30 32.79555 -117.44710 35533 ft 224 kts 280°
2026-04-22 23:30 32.79980 -117.46514 35487 ft 225 kts 281°
2026-04-22 23:30 32.80402 -117.48286 35377 ft 224 kts 281°
2026-04-22 23:31 32.80822 -117.50047 35325 ft 221 kts 280°
2026-04-22 23:31 32.81240 -117.51813 35335 ft 222 kts 281°
2026-04-22 23:31 32.81656 -117.53567 35381 ft 222 kts 280°
2026-04-22 23:31 32.82070 -117.55328 35388 ft 224 kts 281°
2026-04-22 23:32 32.82496 -117.57116 35347 ft 224 kts 280°
2026-04-22 23:32 32.82923 -117.58898 35239 ft 223 kts 281°
2026-04-22 23:32 32.83344 -117.60647 35207 ft 220 kts 280°
2026-04-22 23:32 32.83763 -117.62380 35265 ft 221 kts 279°
2026-04-22 23:33 32.84185 -117.64156 35288 ft 224 kts 281°
2026-04-22 23:33 32.84605 -117.65917 35295 ft 223 kts 279°
2026-04-22 23:33 32.85028 -117.67679 35384 ft 220 kts 280°
2026-04-22 23:33 32.85410 -117.69428 35447 ft 221 kts 277°
2026-04-22 23:34 32.85617 -117.71245 35435 ft 220 kts 271°
2026-04-22 23:34 32.85609 -117.73038 35367 ft 219 kts 265°
2026-04-22 23:34 32.85426 -117.74828 35379 ft 217 kts 263°
2026-04-22 23:34 32.85091 -117.76596 35474 ft 220 kts 257°
2026-04-22 23:35 32.84562 -117.78297 35500 ft 226 kts 252°
2026-04-22 23:35 32.83828 -117.79960 35444 ft 230 kts 248°
2026-04-22 23:35 32.82909 -117.81563 35421 ft 234 kts 243°
2026-04-22 23:35 32.81819 -117.83021 35487 ft 239 kts 237°
2026-04-22 23:36 32.80529 -117.84319 35580 ft 247 kts 230°
2026-04-22 23:36 32.79070 -117.85447 35539 ft 258 kts 224°
2026-04-22 23:36 32.77409 -117.86370 35454 ft 270 kts 216°
2026-04-22 23:36 32.75568 -117.86984 35484 ft 277 kts 207°
2026-04-22 23:37 32.73641 -117.87293 35545 ft 291 kts 202°
2026-04-22 23:37 32.71521 -117.87278 35607 ft 312 kts 190°
2026-04-22 23:37 32.69332 -117.86744 35601 ft 333 kts 179°
2026-04-22 23:37 32.67130 -117.85651 35522 ft 351 kts 166°
2026-04-22 23:38 32.65083 -117.84077 35553 ft 360 kts 155°
2026-04-22 23:38 32.63191 -117.82004 35589 ft 384 kts 141°
2026-04-22 23:38 32.61636 -117.79297 35518 ft 406 kts 123°
2026-04-22 23:38 32.60674 -117.76163 35500 ft 413 kts 105°
2026-04-22 23:39 32.60273 -117.72801 35597 ft 412 kts 93°
2026-04-22 23:39 32.60375 -117.69383 35536 ft 417 kts 77°
2026-04-22 23:39 32.61207 -117.66154 35434 ft 406 kts 55°
2026-04-22 23:39 32.62670 -117.63392 35452 ft 388 kts 39°
2026-04-22 23:40 32.66461 -117.59114 35508 ft 365 kts 16°
2026-04-22 23:40 32.68634 -117.57756 35557 ft 344 kts
2026-04-22 23:40 32.70825 -117.56683 35669 ft 341 kts
2026-04-22 23:41 32.73068 -117.55688 35771 ft 347 kts
2026-04-22 23:41 32.75315 -117.54684 35873 ft 345 kts
2026-04-22 23:41 32.79798 -117.52593 35815 ft 349 kts
2026-04-22 23:42 32.84270 -117.50423 35997 ft 348 kts
2026-04-22 23:42 32.88781 -117.48231 36071 ft 351 kts
2026-04-22 23:43 32.93290 -117.46018 36043 ft 346 kts
2026-04-22 23:43 32.97753 -117.43832 36223 ft 350 kts
2026-04-22 23:44 33.02304 -117.41623 36350 ft 355 kts
2026-04-22 23:44 33.06823 -117.39402 36217 ft 351 kts
2026-04-22 23:45 33.11358 -117.37185 36283 ft 353 kts
2026-04-22 23:45 33.13630 -117.36070 36387 ft 351 kts
2026-04-22 23:45 33.15877 -117.34972 36365 ft 353 kts
2026-04-22 23:46 33.20446 -117.32737 36434 ft 348 kts
2026-04-22 23:46 33.24913 -117.30553 36582 ft 354 kts
2026-04-22 23:47 33.29514 -117.28322 36550 ft 354 kts
2026-04-22 23:47 33.33987 -117.26121 36479 ft 350 kts
2026-04-22 23:48 33.38533 -117.23914 36595 ft 352 kts
2026-04-22 23:48 33.43156 -117.21658 36592 ft 356 kts
2026-04-22 23:49 33.47726 -117.19412 36450 ft 352 kts
2026-04-22 23:49 33.52239 -117.17204 36425 ft 352 kts
2026-04-22 23:50 33.56821 -117.14977 36501 ft 356 kts
2026-04-22 23:50 33.61395 -117.12734 36433 ft 351 kts
2026-04-22 23:51 33.65898 -117.10529 36429 ft 353 kts
2026-04-22 23:51 33.68147 -117.09437 36531 ft 351 kts
2026-04-22 23:51 33.70438 -117.08328 36486 ft 357 kts
2026-04-22 23:52 33.74976 -117.06106 36479 ft 351 kts
2026-04-22 23:52 33.79506 -117.03889 36624 ft 354 kts
2026-04-22 23:53 33.84080 -117.01672 36708 ft 358 kts
2026-04-22 23:53 33.88659 -116.99427 36730 ft 354 kts
2026-04-22 23:54 33.93232 -116.97192 36920 ft 352 kts
2026-04-22 23:54 33.97842 -116.94954 36893 ft 359 kts
2026-04-22 23:55 34.02443 -116.92703 36918 ft 356 kts
2026-04-22 23:55 34.04723 -116.91584 37038 ft 354 kts
2026-04-22 23:55 34.07021 -116.90463 37076 ft 360 kts
2026-04-22 23:56 34.11663 -116.88204 37001 ft 357 kts
2026-04-22 23:56 34.16233 -116.85963 36907 ft 353 kts
2026-04-22 23:57 34.20833 -116.83727 36898 ft 353 kts
2026-04-22 23:57 34.25356 -116.81525 37093 ft 356 kts
2026-04-22 23:58 34.27667 -116.80411 37194 ft 361 kts
2026-04-22 23:58 34.30011 -116.79278 37208 ft 364 kts
2026-04-22 23:58 34.34632 -116.77003 37109 ft 355 kts
2026-04-22 23:59 34.39215 -116.74757 37110 ft 352 kts
2026-04-22 23:59 34.41489 -116.73660 37217 ft 357 kts
2026-04-22 23:59 34.43813 -116.72535 37337 ft 361 kts
2026-04-23 00:00 34.50694 -116.69166 37345 ft 354 kts
2026-04-23 00:00 34.53018 -116.68040 37473 ft 358 kts
2026-04-23 00:01 34.55337 -116.66914 37588 ft 359 kts
2026-04-23 00:01 34.59986 -116.64652 37565 ft 364 kts
2026-04-23 00:02 34.64625 -116.62381 37745 ft 358 kts
2026-04-23 00:02 34.66929 -116.61263 37867 ft 362 kts
2026-04-23 00:02 34.69272 -116.60131 37992 ft 365 kts
2026-04-23 00:03 34.74007 -116.57827 38047 ft 370 kts
2026-04-23 00:03 34.78714 -116.55518 38010 ft 361 kts
2026-04-23 00:04 34.83425 -116.53223 38004 ft 361 kts
2026-04-23 00:04 34.88103 -116.50952 38186 ft 365 kts
2026-04-23 00:04 34.90453 -116.49815 38291 ft 370 kts
2026-04-23 00:05 34.92832 -116.48660 38209 ft 367 kts
2026-04-23 00:05 34.97575 -116.46339 38132 ft 364 kts
2026-04-23 00:05 34.99924 -116.45190 38266 ft 364 kts
2026-04-23 00:06 35.02253 -116.44056 38398 ft 366 kts
2026-04-23 00:06 35.04626 -116.42908 38538 ft 368 kts
2026-04-23 00:06 35.07040 -116.41740 38651 ft 371 kts
2026-04-23 00:07 35.11852 -116.39399 38714 ft 370 kts
2026-04-23 00:07 35.16624 -116.37070 38783 ft 369 kts
2026-04-23 00:07 35.18966 -116.35922 38907 ft 365 kts
2026-04-23 00:08 35.21345 -116.34764 39045 ft 368 kts
2026-04-23 00:08 35.26188 -116.32430 39067 ft 376 kts
2026-04-23 00:09 35.30989 -116.30080 38902 ft 369 kts
2026-04-23 00:09 35.35777 -116.27743 38951 ft 368 kts
2026-04-23 00:09 35.38166 -116.26584 39088 ft 371 kts
2026-04-23 00:10 35.40573 -116.25421 39251 ft 373 kts
2026-04-23 00:10 35.42992 -116.24252 39411 ft 375 kts
2026-04-23 00:10 35.45412 -116.23077 39573 ft 376 kts
2026-04-23 00:10 35.47848 -116.21894 39684 ft 378 kts
2026-04-23 00:11 35.50296 -116.20704 39734 ft 381 kts
2026-04-23 00:11 35.55245 -116.18298 39709 ft 380 kts
2026-04-23 00:12 35.59934 -116.15733 39577 ft 400 kts 24°